KUZGTU 1 (RS47S)

Last updated on Mon Sep 15 2025 00:03:09 GMT+0000 (Coordinated Universal Time)

1 57217U 23091AV 25257.26295836 .00007200 00000+0 31906-3 0 9999 2 57217 97.5487 314.8272 0012420 354.1214 5.9874 15.21864104122291
UTC large
Height (km)
Speed (km/s)
/
Latitude / Longitude
Inclination (degrees)
Orbital Period (minutes)
Azimuth
Elevation
Range (km)
Doppler Factor

Next 0 passes for location: London (51.5072 / 0.1276)

Sorry there are no passes over London.